Waarnemingen

Advertentie
Mijn weer
Grenoble/St.Geoirs, Frankrijk (7486): temperatuur & dauwpunt: 13.06.2018 22:00:00 - 19.06.2018 22:00:00 (CEST)Grenoble/St.Geoirs, Frankrijk (7486): temperatuur 5cm: 13.06.2018 22:00:00 - 19.06.2018 22:00:00 (CEST)Grenoble/St.Geoirs, Frankrijk (7486): temperatuur -20cm & temperatuur -100cm: 13.06.2018 22:00:00 - 19.06.2018 22:00:00 (CEST)Grenoble/St.Geoirs, Frankrijk (7486): windsnelheid & windstoten: 13.06.2018 22:00:00 - 19.06.2018 22:00:00 (CEST)Grenoble/St.Geoirs, Frankrijk (7486): windrichting: 13.06.2018 22:00:00 - 19.06.2018 22:00:00 (CEST)Grenoble/St.Geoirs, Frankrijk (7486): luchtdruk: 13.06.2018 22:00:00 - 19.06.2018 22:00:00 (CEST)Grenoble/St.Geoirs, Frankrijk (7486): zicht: 13.06.2018 22:00:00 - 19.06.2018 22:00:00 (CEST)Grenoble/St.Geoirs, Frankrijk (7486): Zonneschijnduur: 13.06.2018 22:00:00 - 19.06.2018 22:00:00 (CEST)Grenoble/St.Geoirs, Frankrijk (7486): neerslag: 13.06.2018 22:00:00 - 19.06.2018 22:00:00 (CEST)
Datum & Tijd tt [°C] td [°C] tt 5cm [°C] tt -20cm [°C] tt -100cm [°C] ff [km/u] ff [kn] fx [km/u] fx [kn] dd ppp [hPa] vv [km] sd [min] rr [mm]
19.06.2018 22:00:00 20,2 16,0 - - - 9 5 16 9 N 1020,2 29 0 0,0
19.06.2018 21:00:00 22,9 16,2 22,1 20,6 17,2 12 7 22 12 NNW 1019,8 17 60 0,0
19.06.2018 20:00:00 24,8 16,0 26,7 20,5 17,3 16 8 26 14 NNW 1019,7 51 60 0,0
19.06.2018 19:00:00 25,7 16,0 28,8 20,3 17,2 15 8 26 14 NNW 1019,8 44 60 0,0
19.06.2018 18:00:00 25,9 16,2 30,4 20,1 17,2 16 8 32 17 N 1020,2 43 60 0,0
19.06.2018 17:00:00 25,9 15,6 31,3 19,9 17,3 15 8 27 15 N 1020,5 44 60 0,0
19.06.2018 16:00:00 25,9 15,9 27,7 19,7 17,2 14 8 28 15 NNW 1020,8 43 47 0,0
19.06.2018 15:00:00 24,9 14,4 28,6 19,5 17,2 13 7 41 22 NNW 1021,3 48 53 0,0
19.06.2018 14:00:00 24,5 15,4 26,5 19,4 17,2 12 6 24 13 N 1021,9 41 35 0,0
19.06.2018 13:00:00 23,5 14,2 26,3 19,3 17,2 11 6 25 13 N 1022,5 18 52 0,0
19.06.2018 12:00:00 22,7 14,5 26,7 19,3 17,2 13 7 27 14 N 1022,9 47 58 0,0
19.06.2018 11:00:00 21,7 13,8 26,8 19,3 17,2 15 8 26 14 N 1023,2 50 60 0,0
19.06.2018 10:00:00 20,5 14,6 24,9 19,4 17,2 9 5 19 10 N 1023,8 50 60 0,0
19.06.2018 09:00:00 19,0 13,8 22,7 19,5 17,2 4 2 10 5 ZZO 1024,0 44 60 0,0
19.06.2018 08:00:00 16,6 13,5 18,3 19,6 17,2 4 2 9 5 O 1024,4 32 60 0,0
19.06.2018 07:00:00 14,8 13,3 10,0 19,7 17,2 4 2 10 6 ONO 1024,6 25 44 0,0
19.06.2018 06:00:00 12,4 11,0 9,5 19,8 17,2 5 3 9 5 OZO 1024,9 16 0 0,0
19.06.2018 05:00:00 13,6 12,2 10,5 19,9 17,2 5 3 9 5 ONO 1024,3 33 0 0,0
19.06.2018 04:00:00 13,9 12,1 10,6 20,0 17,2 5 3 10 5 ONO 1024,1 48 0 0,0
19.06.2018 03:00:00 15,0 12,5 13,2 20,1 17,2 5 3 23 12 ONO 1024,0 58 0 0,0
19.06.2018 02:00:00 16,0 12,7 13,6 20,1 17,2 7 4 21 11 NW 1023,8 60 0 0,0
19.06.2018 01:00:00 16,2 12,9 14,4 20,1 17,2 10 6 27 15 NW 1023,6 60 0 0,0
19.06.2018 00:00:00 16,8 13,1 15,5 20,2 17,2 8 4 32 17 NNW 1023,6 60 0 0,0
18.06.2018 23:00:00 17,8 13,1 17,0 20,1 17,2 16 9 39 21 NNW 1023,3 60 0 0,0
18.06.2018 22:00:00 18,4 13,0 17,5 20,1 17,2 16 9 39 21 N 1022,7 60 3 0,0
18.06.2018 21:00:00 19,7 12,9 19,6 20,0 17,2 14 8 38 20 NNW 1022,2 56 60 0,0
18.06.2018 20:00:00 20,9 12,8 22,5 19,9 17,2 22 12 44 24 NNW 1021,7 43 60 0,0
18.06.2018 19:00:00 21,9 13,0 25,1 19,7 17,2 22 12 40 22 NNW 1021,4 53 60 0,0
18.06.2018 18:00:00 22,6 11,9 26,9 19,6 17,2 23 13 45 25 NNW 1021,2 56 60 0,0
18.06.2018 17:00:00 23,2 11,6 28,3 19,4 17,2 22 12 36 19 NW 1021,3 20 60 0,0
18.06.2018 16:00:00 23,0 12,0 25,0 19,3 17,2 22 12 38 21 NW 1021,5 56 42 0,0
18.06.2018 15:00:00 22,4 12,1 26,3 19,1 17,2 16 9 34 18 NNW 1021,6 49 48 0,0
18.06.2018 14:00:00 21,9 12,2 25,1 19,1 17,2 20 11 39 21 NNW 1021,8 20 56 0,0
18.06.2018 13:00:00 21,5 12,1 22,4 19,0 17,2 18 10 38 21 N 1022,4 20 42 0,0
18.06.2018 12:00:00 19,5 11,8 21,6 19,1 17,2 19 10 35 19 NNW 1022,6 25 31 0,0
18.06.2018 11:00:00 19,5 12,0 20,6 19,1 17,2 16 9 34 18 NNW 1022,5 27 51 0,0
18.06.2018 10:00:00 17,4 11,7 18,4 19,2 17,2 17 9 32 17 N 1022,9 30 7 0,0
18.06.2018 09:00:00 17,4 11,4 17,6 19,2 17,2 14 8 24 13 N 1022,5 32 40 0,0
18.06.2018 08:00:00 15,1 9,9 15,6 19,3 17,2 2 1 17 9 ONO 1022,8 22 20 0,0
18.06.2018 07:00:00 14,5 9,7 12,3 19,4 17,2 5 3 16 9 NW 1022,9 36 20 0,0
18.06.2018 06:00:00 14,6 9,4 13,6 19,5 17,2 8 4 19 10 NNW 1022,8 20 0 0,0
18.06.2018 05:00:00 14,8 9,6 14,0 19,5 17,2 6 3 31 17 W 1022,5 28 0 0,0
18.06.2018 04:00:00 14,8 10,2 14,3 19,6 17,2 16 8 27 14 NNW 1022,3 27 0 0,0
18.06.2018 03:00:00 15,0 10,6 13,2 19,7 17,2 6 3 18 10 WNW 1022,6 28 0 0,0
18.06.2018 02:00:00 15,5 10,0 13,5 19,7 17,2 8 4 17 9 W 1022,2 30 0 0,0
18.06.2018 01:00:00 16,0 10,7 14,4 19,8 17,2 8 4 15 8 WNW 1022,2 30 0 0,0
18.06.2018 00:00:00 16,6 11,3 14,9 19,8 17,2 3 2 15 8 W 1022,2 29 0 0,0
17.06.2018 23:00:00 17,0 11,5 15,9 19,8 17,2 7 4 13 7 NNW 1022,1 32 0 0,0
17.06.2018 22:00:00 17,9 11,7 16,9 19,8 17,2 4 2 17 9 ONO 1021,7 27 3 0,0
17.06.2018 21:00:00 18,5 12,0 18,2 19,8 17,2 4 2 24 13 NNW 1020,7 27 5 0,0
17.06.2018 20:00:00 19,0 12,5 19,1 19,8 17,2 10 6 35 19 NNW 1020,1 26 0 0,0
17.06.2018 19:00:00 19,5 12,7 19,8 19,7 17,2 19 10 34 18 N 1019,6 22 0 0,0
17.06.2018 18:00:00 20,9 13,6 22,5 19,7 17,2 19 10 41 22 N 1019,1 19 13 0,0
17.06.2018 17:00:00 20,4 12,9 21,9 19,7 17,2 24 13 42 23 NNW 1019,1 19 3 0,0
17.06.2018 16:00:00 20,7 12,1 21,9 19,6 17,1 23 13 41 22 NNW 1019,0 20 4 0,0
17.06.2018 15:00:00 20,1 12,6 21,7 19,6 17,1 23 12 44 24 NNW 1018,7 20 0 0,0
17.06.2018 14:00:00 20,5 13,5 22,3 19,5 17,2 24 13 37 20 NNW 1018,8 20 0 0,0
17.06.2018 13:00:00 21,1 13,3 24,4 19,5 17,1 18 10 31 17 NNW 1018,8 22 18 0,0
17.06.2018 12:00:00 20,2 13,6 22,8 19,6 17,1 15 8 29 16 NNW 1019,1 24 4 0,0
17.06.2018 11:00:00 19,5 14,1 19,4 19,6 17,1 14 7 29 15 NNW 1019,5 24 3 0,0
17.06.2018 10:00:00 18,1 13,4 19,1 19,7 17,1 17 9 31 17 NNW 1019,8 21 0 0,0
17.06.2018 09:00:00 17,6 12,9 17,9 19,8 17,1 13 7 28 15 NNW 1019,5 27 0 0,0
17.06.2018 08:00:00 17,0 12,3 16,9 19,9 17,1 5 3 14 8 NW 1019,2 25 5 0,0
17.06.2018 07:00:00 16,3 11,9 14,3 20,0 17,1 3 1 14 7 Z 1018,7 18 16 0,0
17.06.2018 06:00:00 16,0 11,6 14,6 20,1 17,1 5 3 14 8 N 1018,5 27 0 0,0
17.06.2018 05:00:00 16,7 12,0 15,5 20,1 17,1 7 4 17 9 NO 1018,1 32 0 0,0
17.06.2018 04:00:00 17,0 13,1 16,2 20,2 17,2 8 4 25 14 ZZW 1018,0 30 0 0,0
17.06.2018 03:00:00 17,3 13,4 16,3 20,3 17,1 18 10 35 19 NW 1017,6 34 0 0,0
17.06.2018 02:00:00 17,5 13,6 14,5 20,4 17,1 14 7 26 14 NW 1017,2 34 0 0,0
17.06.2018 01:00:00 17,6 13,1 14,7 20,4 17,1 6 3 10 5 WNW 1017,1 31 0 0,0
17.06.2018 00:00:00 17,5 13,2 14,7 20,4 17,1 4 2 12 7 Z 1017,0 23 0 0,0
16.06.2018 23:00:00 18,7 13,8 16,5 20,3 17,1 6 4 12 6 W 1016,4 24 0 0,0
16.06.2018 22:00:00 19,2 14,0 16,7 20,2 17,1 5 3 10 6 ZZO 1015,9 3,1 2 0,0
16.06.2018 21:00:00 21,3 13,2 20,2 20,2 17,1 3 2 16 8 ZW 1014,9 20 56 0,0
16.06.2018 20:00:00 22,3 12,8 22,8 20,0 17,1 11 6 26 14 N 1014,4 18 53 0,0
16.06.2018 19:00:00 23,9 12,8 27,2 19,9 17,1 15 8 31 17 NNW 1014,0 14 60 0,0
16.06.2018 18:00:00 24,3 12,6 27,6 19,7 17,1 13 7 22 12 NNW 1013,9 16 56 0,0
16.06.2018 17:00:00 24,1 12,7 27,7 19,5 17,1 11 6 30 16 N 1014,2 16 40 0,0
16.06.2018 16:00:00 23,9 13,4 25,7 19,3 17,1 14 8 29 15 N 1014,4 18 41 0,0
16.06.2018 15:00:00 24,0 13,8 27,0 19,2 17,1 12 6 26 14 N 1014,8 20 49 0,0
16.06.2018 14:00:00 22,9 14,2 25,9 19,1 17,1 16 8 26 14 N 1015,1 19 47 0,0
16.06.2018 13:00:00 22,4 14,8 24,5 19,0 17,1 11 6 24 13 NW 1015,4 18 44 0,0
16.06.2018 12:00:00 21,4 14,3 25,8 19,0 17,1 15 8 29 15 NNW 1015,6 19 51 0,0
16.06.2018 11:00:00 20,9 14,3 24,8 19,0 17,1 13 7 31 17 N 1015,4 20 58 0,0
16.06.2018 10:00:00 19,6 14,4 23,1 19,1 17,1 10 5 21 11 NW 1015,7 10 54 0,0
16.06.2018 09:00:00 17,9 14,0 23,0 19,2 17,1 5 3 11 6 NW 1016,0 25 60 0,0
16.06.2018 08:00:00 16,0 13,7 15,3 19,3 17,1 4 2 10 5 Z 1016,3 10 43 0,0
16.06.2018 07:00:00 13,4 12,5 9,6 19,5 17,1 2 1 7 4 ZZW 1016,4 14 28 0,0
16.06.2018 06:00:00 12,5 11,1 9,9 19,5 17,1 4 2 9 5 WZW 1016,3 11 0 0,0
16.06.2018 05:00:00 12,5 11,1 10,6 19,6 17,1 6 3 11 6 ZO 1015,9 17 0 0,0
16.06.2018 04:00:00 13,5 11,5 10,7 19,7 17,1 4 2 9 5 ZO 1015,7 18 0 0,0
16.06.2018 03:00:00 14,4 11,5 10,5 19,8 17,1 3 2 16 9 ONO 1015,7 18 0 0,0
16.06.2018 02:00:00 15,7 12,6 12,6 19,8 17,1 5 3 17 9 NNW 1015,5 20 0 0,0
16.06.2018 01:00:00 16,7 13,2 13,3 19,8 17,1 5 3 15 8 NO 1015,4 23 0 0,0
16.06.2018 00:00:00 17,6 13,1 14,8 19,9 17,1 4 2 19 10 NNW 1015,3 26 0 0,0
15.06.2018 23:00:00 18,6 12,8 17,4 19,9 17,1 8 4 29 16 ZW 1015,1 24 0 0,0
15.06.2018 22:00:00 19,2 12,0 17,9 19,8 17,1 10 5 29 16 N 1014,7 40 2 0,0
15.06.2018 21:00:00 19,8 12,1 19,0 19,7 17,1 11 6 29 16 NNW 1014,4 32 60 0,0
15.06.2018 20:00:00 21,4 12,5 22,6 19,6 17,1 19 11 36 19 NNW 1013,9 18 56 0,0
15.06.2018 19:00:00 21,8 12,6 23,8 19,4 17,1 20 11 34 18 NNW 1013,7 20 52 0,0
15.06.2018 18:00:00 22,3 13,1 23,2 19,2 17,2 21 11 33 18 NNW 1013,6 22 36 0,0
15.06.2018 17:00:00 23,0 13,5 27,7 19,1 17,2 18 10 32 18 NNW 1013,7 25 57 0,0
15.06.2018 16:00:00 22,9 12,8 26,7 18,9 17,1 16 9 32 18 NNW 1014,0 29 56 0,0
15.06.2018 15:00:00 21,8 12,6 24,3 18,7 17,1 14 7 29 15 NNO 1014,4 19 49 0,0
15.06.2018 14:00:00 20,5 11,7 23,4 18,7 17,2 13 7 31 17 N 1014,8 20 41 0,0
15.06.2018 13:00:00 20,0 12,0 23,5 18,6 17,1 15 8 31 17 NNW 1015,1 22 35 0,0
15.06.2018 12:00:00 19,7 13,2 23,4 18,6 17,2 10 5 21 12 NNW 1015,2 24 34 0,0
15.06.2018 11:00:00 19,7 12,2 23,6 18,6 17,1 4 2 12 7 ONO 1015,5 18 46 0,0
15.06.2018 10:00:00 17,3 12,8 19,8 18,7 17,2 8 5 20 11 NW 1015,7 18 16 0,0
15.06.2018 09:00:00 16,4 12,2 16,7 18,8 17,2 6 4 14 7 NW 1015,8 14 53 0,0
15.06.2018 08:00:00 14,5 11,6 12,7 18,8 17,2 4 2 10 5 WZW 1016,0 19 19 0,0
15.06.2018 07:00:00 12,6 10,8 9,6 18,9 17,2 3 2 10 5 W 1016,2 10 0 0,0
15.06.2018 06:00:00 12,1 10,2 9,8 19,0 17,2 3 1 10 5 Z 1016,2 16 0 0,0
15.06.2018 05:00:00 13,0 10,7 10,7 19,0 17,2 5 3 11 6 O 1015,9 25 0 0,0
15.06.2018 04:00:00 13,9 10,9 12,4 19,1 17,2 4 2 37 20 OZO 1015,9 29 0 0,0
15.06.2018 03:00:00 14,2 10,8 12,7 19,2 17,2 10 5 30 16 NNW 1016,1 28 0 0,0
15.06.2018 02:00:00 15,1 10,5 13,2 19,3 17,2 10 6 24 13 NNW 1015,9 26 0 0,0
15.06.2018 01:00:00 15,3 10,3 13,5 19,3 17,2 14 8 30 16 N 1015,8 26 0 0,0
15.06.2018 00:00:00 15,4 10,4 13,8 19,3 17,2 13 7 31 17 N 1016,1 27 0 0,0
14.06.2018 23:00:00 16,3 9,9 15,1 19,3 17,3 19 10 39 21 NNW 1016,1 30 0 0,0
14.06.2018 22:00:00 17,0 9,9 15,8 19,3 17,3 20 11 41 22 N 1015,6 31 2 0,0
14.06.2018 21:00:00 17,4 9,8 16,7 19,2 17,2 24 13 46 25 N 1014,9 32 3 0,0
14.06.2018 20:00:00 18,4 9,7 18,8 19,1 17,2 29 16 44 24 NNW 1014,4 11 37 0,0
14.06.2018 19:00:00 19,0 9,7 20,4 18,9 17,2 26 14 50 27 NNW 1014,0 8 46 0,0
14.06.2018 18:00:00 20,2 11,1 25,6 18,8 17,3 26 14 44 24 NNW 1013,7 11 60 0,0
14.06.2018 17:00:00 20,3 11,2 26,1 18,6 17,3 22 12 37 20 NNW 1014,1 13 60 0,0
14.06.2018 16:00:00 20,2 11,4 23,2 18,5 17,3 22 12 40 21 NNW 1014,3 15 52 0,0
14.06.2018 15:00:00 18,9 10,2 21,9 18,3 17,3 19 10 34 18 NNW 1014,8 17 18 0,0
14.06.2018 14:00:00 18,6 10,9 22,3 18,3 17,3 19 10 35 19 NNW 1015,1 15 39 0,0
14.06.2018 13:00:00 18,4 10,2 21,8 18,2 17,3 19 10 34 18 N 1015,5 17 53 0,0
14.06.2018 12:00:00 17,5 10,8 19,0 18,2 17,3 19 10 47 25 N 1015,6 15 40 0,0
14.06.2018 11:00:00 16,6 10,9 21,7 18,3 17,3 15 8 30 16 N 1015,4 15 60 0,0
14.06.2018 10:00:00 15,2 11,0 17,5 18,3 17,3 12 6 23 12 NNO 1015,7 17 40 0,0
14.06.2018 09:00:00 14,0 10,6 13,6 18,4 17,3 3 2 13 7 NNO 1016,1 15 20 0,0
14.06.2018 08:00:00 11,9 9,5 13,1 18,4 17,3 0 0 12 7 N 1016,3 10 18 0,0
14.06.2018 07:00:00 11,8 9,5 11,3 18,5 17,3 6 3 18 10 N 1016,0 17 3 0,0
14.06.2018 06:00:00 11,6 9,3 9,7 18,6 17,3 3 1 22 12 N 1015,7 16 0 0,0
14.06.2018 05:00:00 11,6 9,3 10,2 18,7 17,3 5 3 18 10 N 1015,2 21 0 0,0
14.06.2018 04:00:00 11,9 9,3 10,7 18,7 17,3 5 3 30 16 W 1015,3 27 0 0,0
14.06.2018 03:00:00 12,7 9,9 11,9 18,8 17,3 19 10 35 19 N 1015,1 31 0 0,0
14.06.2018 02:00:00 13,6 10,2 13,1 18,8 17,3 19 10 39 21 N 1015,0 35 0 0,0
14.06.2018 01:00:00 14,3 10,1 13,7 18,9 17,3 23 12 44 24 NNW 1014,9 34 0 0,0
14.06.2018 00:00:00 14,8 10,4 14,2 18,9 17,3 24 13 40 22 NNW 1015,0 34 0 0,0
13.06.2018 23:00:00 15,2 10,4 14,5 19,0 17,3 23 13 40 22 N 1015,1 31 0 0,0
13.06.2018 22:00:00 15,5 10,3 14,9 19,0 17,3 22 12 45 25 NNW 1014,6 28 0 0,0

tt = temperatuur
td = dauwpunt
tt 5cm = temperatuur 5cm
tt -20cm = temperatuur -20cm
tt -100cm = temperatuur -100cm
ff = windsnelheid
fx = windstoten
dd = windrichting
ppp = luchtdruk
vv = zicht
sd = Zonneschijnduur
rr = neerslag

Weerstations in de omgeving